Location: New York
(40.7127°N, 74.0060°W)
Time: 18:21:52
(UTC-04:00)

VELOX 1 - Pass Details

Date: 30 April 2024
Orbit: 605 x 617 km, 98.3° (Epoch: 27 May)

Event Time Altitude Azimuth Distance (km) Brightness Sun altitude
Rises 21:23:14 0° 7° (N) 2,901 ? -15.9°
Reaches altitude 10° 21:25:28 10° 2° (N) 1,991 ? -16.3°
Maximum altitude 21:29:38 50° 288° (WNW) 795 ? -16.9°
Drops below altitude 10° 21:33:47 10° 213° (SSW) 1,972 ? -17.5°
Sets 21:36:00 0° 208° (SSW) 2,871 ? -17.8°
